Location: Béaulencourt
(50.0796°N, 2.8795°E)
Time: 23:06:48
(UTC+00:00)

ARIANE 6 FM1 Upper Stage - Pass Details

Date: 15 March 2026
Orbit: 524 x 604 km, 62.0° (Epoch: 13 April)

Event Time Altitude Azimuth Distance (km) Brightness Sun altitude
Exits shadow 04:22:58 35° 247° (WSW) 890 3.1 -16.6°
Maximum altitude 04:24:32 67° 318° (NW) 588 2.6 -16.4°
Drops below altitude 10° 04:28:32 10° 42° (NE) 1,787 6.1 -15.7°
Sets 04:30:44 0° 45° (NE) 2,674 7.2 -15.4°
